When you browse on this site, cookies collect data to enhance your experience and personalize the content and advertising you see.
Visit our Privacy Policy to learn more. By continuing to use the site, you agree to this use of cookies and data.
  • In Portugal
  • List of Countries
  • For 7 days
  • Water Temperature
  • Weather Map
  • Weather Widgets
  • user-avatar
    Login

    Hourly Weather Dubeyki

    Today, 23 September, Monday

    Time Temperature Precipitation Wind Pressure Humidity
    00:00 +6°C° 0 mm 4 mps 748 mmHg 80%
    01:00 +6°C° 0 mm 4 mps 749 mmHg 79%
    02:00 +5°C° 0 mm 3 mps 750 mmHg 78%
    03:00 +4°C° 0 mm 3 mps 750 mmHg 83%
    04:00 +3°C° 0 mm 3 mps 750 mmHg 88%
    05:00 +3°C° 0 mm 2 mps 750 mmHg 94%
    06:00 +4°C° 0 mm 2 mps 751 mmHg 89%
    07:00 +4°C° 0 mm 3 mps 751 mmHg 85%
    08:00 +4°C° 0 mm 3 mps 752 mmHg 80%
    09:00 +7°C° 0 mm 3 mps 752 mmHg 71%
    10:00 +8°C° 0 mm 3 mps 752 mmHg 62%
    11:00 +10°C° 0 mm 3 mps 752 mmHg 53%
    12:00 +10°C° 0 mm 2 mps 752 mmHg 49%
    13:00 +12°C° 0 mm 2 mps 752 mmHg 46%
    14:00 +12°C° 0 mm 2 mps 752 mmHg 42%
    15:00 +12°C° 0 mm 2 mps 752 mmHg 46%
    16:00 +10°C° 0 mm 2 mps 752 mmHg 49%
    17:00 +11°C° 0 mm 1 mps 751 mmHg 53%
    18:00 +8°C° 0 mm 2 mps 752 mmHg 56%
    19:00 +7°C° 0 mm 2 mps 752 mmHg 60%
    20:00 +5°C° 0 mm 2 mps 752 mmHg 63%
    21:00 +4°C° 0 mm 2 mps 752 mmHg 65%
    22:00 +4°C° 0 mm 2 mps 752 mmHg 68%
    23:00 +3°C° 0 mm 2 mps 752 mmHg 70%

    Tomorrow, 24 September, Tuesday

    Time Temperature Precipitation Wind Pressure Humidity
    00:00 +3°C° 0 mm 2 mps 752 mmHg 71%
    01:00 +4°C° 0 mm 1 mps 752 mmHg 73%
    02:00 +3°C° 0 mm 1 mps 752 mmHg 74%
    03:00 +3°C° 0 mm 1 mps 752 mmHg 75%
    04:00 +3°C° 0 mm 1 mps 752 mmHg 77%
    05:00 +2°C° 0 mm 1 mps 752 mmHg 78%
    06:00 +4°C° 0 mm 1 mps 752 mmHg 74%
    07:00 +5°C° 0 mm 1 mps 752 mmHg 69%
    08:00 +6°C° 0 mm 1 mps 752 mmHg 65%
    09:00 +8°C° 0 mm 1 mps 752 mmHg 59%
    10:00 +9°C° 0 mm 1 mps 752 mmHg 53%
    11:00 +11°C° 0 mm 1 mps 751 mmHg 47%
    12:00 +11°C° 0 mm 1 mps 751 mmHg 44%
    13:00 +12°C° 0 mm 1 mps 751 mmHg 41%
    14:00 +13°C° 0 mm 1 mps 750 mmHg 39%
    15:00 +12°C° 0 mm 1 mps 750 mmHg 43%
    16:00 +12°C° 0 mm 1 mps 750 mmHg 47%
    17:00 +11°C° 0 mm 1 mps 749 mmHg 52%
    18:00 +8°C° 0 mm 2 mps 749 mmHg 54%
    19:00 +7°C° 0 mm 2 mps 749 mmHg 56%
    20:00 +5°C° 0 mm 2 mps 750 mmHg 59%
    21:00 +5°C° 0 mm 2 mps 750 mmHg 60%
    22:00 +4°C° 0 mm 2 mps 750 mmHg 61%
    23:00 +4°C° 0 mm 2 mps 750 mmHg 62%

    Day after tomorrow, 25 September, Wednesday

    Time Temperature Precipitation Wind Pressure Humidity
    00:00 +3°C° 0 mm 2 mps 749 mmHg 64%
    01:00 +2°C° 0 mm 3 mps 749 mmHg 66%
    02:00 +2°C° 0 mm 3 mps 749 mmHg 67%
    03:00 +1°C° 0 mm 3 mps 749 mmHg 68%
    04:00 +1°C° 0 mm 3 mps 749 mmHg 69%
    05:00 +1°C° 0 mm 3 mps 749 mmHg 70%
    06:00 +2°C° 0 mm 3 mps 749 mmHg 67%
    07:00 +3°C° 0 mm 3 mps 748 mmHg 63%
    08:00 +4°C° 0 mm 3 mps 748 mmHg 60%
    09:00 +7°C° 0 mm 3 mps 748 mmHg 57%
    10:00 +9°C° 0 mm 3 mps 748 mmHg 54%
    11:00 +10°C° 0 mm 3 mps 748 mmHg 51%
    12:00 +11°C° 0 mm 3 mps 748 mmHg 51%
    13:00 +12°C° 0 mm 3 mps 747 mmHg 50%
    14:00 +13°C° 0 mm 3 mps 747 mmHg 50%
    15:00 +13°C° 0 mm 3 mps 746 mmHg 54%
    16:00 +13°C° 0 mm 3 mps 746 mmHg 58%
    17:00 +13°C° 0 mm 2 mps 746 mmHg 62%
    18:00 +12°C° 0 mm 2 mps 746 mmHg 64%
    19:00 +10°C° 0 mm 3 mps 746 mmHg 67%
    20:00 +9°C° 0 mm 3 mps 746 mmHg 69%
    21:00 +9°C° 0 mm 3 mps 746 mmHg 70%
    22:00 +9°C° 0 mm 3 mps 745 mmHg 70%
    23:00 +9°C° 0 mm 3 mps 745 mmHg 70%

    26 September, Thursday

    Time Temperature Precipitation Wind Pressure Humidity
    00:00 +9°C° 0.2 mm 3 mps 745 mmHg 73%
    01:00 +8°C° 0.2 mm 3 mps 745 mmHg 76%
    02:00 +8°C° 0.2 mm 3 mps 745 mmHg 79%
    03:00 +8°C° 0.1 mm 3 mps 745 mmHg 82%
    04:00 +8°C° 0.1 mm 3 mps 745 mmHg 85%
    05:00 +8°C° 0.1 mm 3 mps 745 mmHg 89%
    06:00 +8°C° 0.1 mm 3 mps 745 mmHg 88%
    07:00 +9°C° 0.1 mm 3 mps 744 mmHg 88%
    08:00 +9°C° 0.1 mm 2 mps 744 mmHg 88%
    09:00 +12°C° 0.1 mm 2 mps 745 mmHg 85%
    10:00 +13°C° 0.1 mm 2 mps 745 mmHg 83%
    11:00 +14°C° 0.1 mm 2 mps 745 mmHg 80%
    12:00 +15°C° 0.1 mm 2 mps 745 mmHg 79%
    13:00 +16°C° 0.1 mm 2 mps 744 mmHg 77%
    14:00 +17°C° 0.1 mm 3 mps 744 mmHg 76%
    15:00 +16°C° 0.3 mm 3 mps 744 mmHg 80%
    16:00 +16°C° 0.3 mm 3 mps 744 mmHg 83%
    17:00 +14°C° 0.3 mm 4 mps 744 mmHg 87%
    18:00 +13°C° 0.1 mm 4 mps 744 mmHg 89%
    19:00 +12°C° 0.1 mm 3 mps 744 mmHg 92%
    20:00 +11°C° 0.1 mm 3 mps 744 mmHg 95%
    21:00 +11°C° 0 mm 3 mps 745 mmHg 96%
    22:00 +12°C° 0 mm 2 mps 745 mmHg 96%
    23:00 +10°C° 0 mm 2 mps 745 mmHg 97%

    27 September, Friday

    Time Temperature Precipitation Wind Pressure Humidity
    00:00 +10°C° 0 mm 2 mps 745 mmHg 97%
    01:00 +11°C° 0 mm 1 mps 745 mmHg 97%
    02:00 +11°C° 0 mm 1 mps 745 mmHg 97%
    03:00 +11°C° 0 mm 1 mps 745 mmHg 97%
    04:00 +12°C° 0 mm 1 mps 746 mmHg 97%
    05:00 +12°C° 0 mm 1 mps 746 mmHg 97%
    06:00 +12°C° 0 mm 1 mps 746 mmHg 97%
    07:00 +12°C° 0 mm 1 mps 746 mmHg 96%
    08:00 +12°C° 0 mm 1 mps 746 mmHg 96%
    09:00 +12°C° 0 mm 1 mps 747 mmHg 94%
    10:00 +13°C° 0 mm 1 mps 747 mmHg 93%
    11:00 +13°C° 0 mm 1 mps 748 mmHg 92%
    12:00 +13°C° 0 mm 1 mps 748 mmHg 91%
    13:00 +13°C° 0 mm 1 mps 748 mmHg 90%
    14:00 +14°C° 0 mm 1 mps 748 mmHg 89%
    15:00 +14°C° 0.1 mm 1 mps 748 mmHg 90%
    16:00 +14°C° 0.1 mm 1 mps 748 mmHg 91%
    17:00 +13°C° 0.1 mm 1 mps 748 mmHg 91%
    18:00 +13°C° 0 mm 1 mps 748 mmHg 93%
    19:00 +12°C° 0 mm 1 mps 749 mmHg 95%
    20:00 +11°C° 0 mm 1 mps 749 mmHg 96%
    21:00 +11°C° 0 mm 1 mps 749 mmHg 96%
    22:00 +11°C° 0 mm 1 mps 749 mmHg 97%
    23:00 +10°C° 0 mm 1 mps 749 mmHg 97%

    28 September, Saturday

    Time Temperature Precipitation Wind Pressure Humidity
    00:00 +10°C° 0 mm 1 mps 749 mmHg 97%
    01:00 +10°C° 0 mm 1 mps 749 mmHg 97%
    02:00 +10°C° 0 mm 1 mps 749 mmHg 96%
    03:00 +10°C° 0 mm 1 mps 749 mmHg 97%
    04:00 +9°C° 0 mm 1 mps 749 mmHg 97%
    05:00 +8°C° 0 mm 2 mps 749 mmHg 97%
    06:00 +9°C° 0 mm 2 mps 749 mmHg 95%
    07:00 +9°C° 0 mm 3 mps 749 mmHg 93%
    08:00 +10°C° 0 mm 3 mps 748 mmHg 91%
    09:00 +12°C° 0 mm 3 mps 748 mmHg 86%
    10:00 +13°C° 0 mm 4 mps 748 mmHg 82%
    11:00 +15°C° 0 mm 4 mps 748 mmHg 77%
    12:00 +17°C° 0 mm 4 mps 748 mmHg 74%
    13:00 +17°C° 0 mm 5 mps 747 mmHg 71%
    14:00 +19°C° 0 mm 5 mps 747 mmHg 68%
    15:00 +19°C° 0.1 mm 4 mps 746 mmHg 71%
    16:00 +18°C° 0.1 mm 4 mps 746 mmHg 73%
    17:00 +18°C° 0.1 mm 3 mps 746 mmHg 76%
    18:00 +17°C° 0.2 mm 3 mps 746 mmHg 78%
    19:00 +16°C° 0.2 mm 3 mps 745 mmHg 80%
    20:00 +16°C° 0.2 mm 3 mps 745 mmHg 81%
    21:00 +14°C° 1.1 mm 3 mps 745 mmHg 86%
    22:00 +14°C° 1.1 mm 3 mps 745 mmHg 92%
    23:00 +14°C° 1.1 mm 3 mps 744 mmHg 97%
    Show more